Powrót do katalogu

239ALFEROV

AktywnyKrótkofalarstwoSSO
NORAD 64881·PAYLOAD·🇷🇺 Russia
Ta nazwa satelity nie została jeszcze potwierdzona przez oficjalne źródła.

Wystrzelony Jul 25, 2025 z Vostochny Cosmodrome

Loading…

Następne Przeloty (najbliższe 24 godziny)

TLE

ŚwieżeSource: Space-Track

Epoka: Sep 14, 2026, 21:45 UTC

1 64881U 25155F   26257.90652211  .00015065  00000-0  44255-3 0  9993
2 64881  97.4658 228.0941 0005819 197.9720 162.1318 15.35210747 94563

Śledź 239ALFEROV w czasie rzeczywistym z AllMySat

Download on the App Store